BANGABANDHUSAT-1

Last updated on Wed Sep 17 2025 00:02:50 GMT+0000 (Coordinated Universal Time)

1 43463U 18044A 25259.60625139 -.00000382 00000+0 00000+0 0 9994 2 43463 0.0189 224.0942 0002668 327.2761 141.7711 1.00270310 26962
UTC large
Height (km)
Speed (km/s)
/
Latitude / Longitude
Inclination (degrees)
Orbital Period (minutes)
Azimuth
Elevation
Range (km)
Doppler Factor

Next 0 passes for location: London (51.5072 / 0.1276)

Sorry there are no passes over London.